{"data":{"norad_id":59152,"intl_designator":"2024-044A","name":"STARLINK-31312","alt_names":[],"object_type":"PAYLOAD","status":"ACTIVE","operator":null,"country":"US","launch_date":"2024-03-04","launch_site_code":"AFETR","launch_vehicle":null,"mission":null,"orbit_class":"UNKNOWN","rcs_meters":null,"size_class":null,"mass_kg":null,"dimensions":null,"purposes":["comms"],"wikipedia_slug":null,"has_3d_model":false,"image_url":null,"decayed_at":null,"tle_current":{"epoch":"2026-05-24T14:56:40.149024Z","epoch_age_seconds":104304,"freshness":"FRESH","line1":"1 59152U 24044A   26144.62268691  .00001433  00000+0  61578-4 0  9994","line2":"2 59152  43.0039 347.4998 0001511 269.4301  90.6378 15.27580321125791","mean_motion":15.27580321,"eccentricity":0.0001511,"inclination_deg":43.0039,"raan_deg":347.4998,"arg_perigee_deg":269.4301,"mean_anomaly_deg":90.6378,"bstar":6.1578e-5,"rev_number":12579,"period_min":94.266728904791,"perigee_km":482.01140977647,"apogee_km":484.08485992422,"semimajor_km":6861.1851348503,"source":"CELESTRAK","updated_at":"2026-05-25T13:38:18.832156Z"}}}